Terminal Aerodrome Forecast
Issued by NWS

Home | Current Version | Previous Version | Graphics & Text | Print | Product List | Glossary Off
Versions: 1 2 3 4 5 6 7 8 9 10 11 12 13 14 15 16 17 18 19 20 21 22 23 24 25 26 27 28 29 30 31 32 33 34 35 36 37 38 39 40

000
FTUS43 KDDC 250211 AAB
TAFGCK
TAF AMD
KGCK 250211Z 2502/2524 14016KT P6SM VCTS OVC013CB
     FM250300 VRB20G35KT P6SM -TSRA OVC012CB
     FM250400 14012KT P6SM OVC014
     FM250600 16013KT 4SM BR OVC008
     FM251000 18010KT 2SM BR OVC003
     FM251500 18008KT P6SM BKN020=

USA.gov is the U.S. government's official web portal to all federal, state and local government web resources and services.